TDRS 12

Last updated on Mon Nov 03 2025 00:02:47 GMT+0000 (Coordinated Universal Time)

1 39504U 14004A 25306.38719450 -.00000257 00000+0 00000+0 0 9996 2 39504 3.7742 14.8634 0006877 230.3064 255.1120 1.00277796 42009
UTC large
Height (km)
Speed (km/s)
/
Latitude / Longitude
Inclination (degrees)
Orbital Period (minutes)
Azimuth
Elevation
Range (km)
Doppler Factor

Next 0 passes for location: London (51.5072 / 0.1276)

Sorry there are no passes over London.